Preview of NWS' New Version of Forecast
This preview is not operational and should not be used for support decisions.

Regional Weather Roundup (RWR)

Issued by Nashville, TN (OHX)

                            
000
ASUS44 KOHX 170610
RWROHX
MIDDLE TENNESSEE HOURLY WEATHER ROUNDUP
NATIONAL WEATHER SERVICE NASHVILLE TN
1200 AM CST MON DEC 17 2018

NOTE: "FAIR" INDICATES FEW OR NO CLOUDS BELOW 12,000 FEET WITH
NO SIGNIFICANT WEATHER AND/OR OBSTRUCTIONS TO VISIBILITY.

* THESE REPORTS ARE NOT UNDER NWS QUALITY CONTROL AND MAY NOT
  REPORT WEATHER SUCH AS PRECIPITATION AND FOG.


TNZ005>011-023>034-057-059-062>066-078-080-170700
...NORTHERN MIDDLE TENNESSEE...
  
CITY           SKY/WX    TMP DP  RH WIND       PRES   REMARKS
CLARKSVILLE      N/A     41  35  79 CALM      30.19F                  
CROSSVILLE     FOG       42  41  96 W6        30.18S VSB 1/4          
DICKSON        CLEAR     41  37  87 W5        30.19S                  
GALLATIN       CLEAR     37  36  93 CALM      30.23S                  
LEBANON        CLEAR     36  36 100 CALM      30.18F                  
LIVINGSTON     FOG       39  39 100 SW6       30.16F VSB 0   WCI  35  
NASHVILLE      MOCLDY    52  35  52 CALM      30.20F                  
PORTLAND       CLEAR     41  36  81 W5        30.18S                  
ROCKWOOD       PTCLDY    43  43 100 CALM      30.17F                  
SMYRNA           N/A     36  35  96 CALM      30.22S                  
SPARTA         FOG       39  39 100 CALM      30.18F VSB 0            
SPRINGFIELD    CLEAR     41  36  81 W3        30.18F                  
WEST NASHVILLE CLEAR     41  37  87 CALM      30.19S                  
$$
TNZ056-058-060-061-075>077-079-093>097-170700
...SOUTHERN MIDDLE TENNESSEE...
  
CITY           SKY/WX    TMP DP  RH WIND       PRES   REMARKS
COLUMBIA       CLEAR     36  36 100 SW5       30.21R WCI  32          
FAYETTEVILLE   CLEAR     39  39 100 CALM      30.19F                  
LAWRENCEBURG   CLEAR     37  36  93 CALM      30.20S                  
LEWISBURG      CLEAR     34  34 100 CALM      30.21S                  
MCMINNVILLE    FOG       32  32 100 CALM      30.19F VSB 1/2          
MURFREESBORO   CLEAR     37  37 100 CALM      30.20S                  
PULASKI        CLEAR     36  36 100 CALM      30.21S                  
SHELBYVILLE    CLEAR     34  34 100 CALM      30.20F                  
TULLAHOMA      CLEAR     34  32  93 CALM      30.18F                  
WINCHESTER     FOG       34  34 100 CALM      30.20S VSB 1/4          
$$


...KEY TO REMARKS...
VSB - VISIBILITY IN MILES
WCI - WIND CHILL INDEX
HX  - HEAT INDEX